Time,TemperatureF,DewpointF,PressureIn,WindDirection,WindDirectionDegrees,WindSpeedMPH,WindSpeedGustMPH,Humidity,HourlyPrecipIn,Conditions,Clouds,dailyrainin,SoftwareType,DateUTC
2013-08-27 00:10:00,77.0,70.3,29.91,WSW,247,3.7,-999.0,80,-99.99,,,0.00,Acu-Link.com,2013-08-27 04:10:00,
2013-08-27 00:26:00,76.8,70.1,29.90,WSW,247,2.2,-999.0,80,-99.99,,,0.00,Acu-Link.com,2013-08-27 04:26:00,
2013-08-27 00:41:00,76.6,70.3,29.90,WSW,247,3.7,-999.0,81,-99.99,,,0.00,Acu-Link.com,2013-08-27 04:41:00,
2013-08-27 00:56:00,76.5,70.6,29.90,WSW,247,2.2,-999.0,82,-99.99,,,0.00,Acu-Link.com,2013-08-27 04:56:00,
2013-08-27 01:11:00,76.3,70.4,29.90,WNW,292,3.2,-999.0,82,-99.99,,,0.00,Acu-Link.com,2013-08-27 05:11:00,
2013-08-27 01:27:00,76.1,70.5,29.90,WSW,247,2.2,-999.0,83,-99.99,,,0.00,Acu-Link.com,2013-08-27 05:27:00,
2013-08-27 01:42:00,75.6,70.4,29.90,WSW,247,2.2,-999.0,84,-99.99,,,0.00,Acu-Link.com,2013-08-27 05:42:00,
2013-08-27 01:57:00,75.4,70.2,29.89,WSW,247,3.7,-999.0,84,-99.99,,,0.00,Acu-Link.com,2013-08-27 05:57:00,
2013-08-27 02:12:00,75.2,70.4,29.89,SW,225,4.2,-999.0,85,-99.99,,,0.00,Acu-Link.com,2013-08-27 06:12:00,
2013-08-27 02:27:00,75.0,70.2,29.89,SW,225,2.7,-999.0,85,-99.99,,,0.00,Acu-Link.com,2013-08-27 06:27:00,
2013-08-27 02:43:00,75.0,70.2,29.89,WSW,247,2.2,-999.0,85,-99.99,,,0.00,Acu-Link.com,2013-08-27 06:43:00,
2013-08-27 02:58:00,74.7,69.9,29.89,West,270,4.2,-999.0,85,-99.99,,,0.00,Acu-Link.com,2013-08-27 06:58:00,
2013-08-27 03:13:00,74.5,70.0,29.88,WSW,247,2.7,-999.0,86,-99.99,,,0.00,Acu-Link.com,2013-08-27 07:13:00,
2013-08-27 03:29:00,74.1,69.6,29.88,WSW,247,3.7,-999.0,86,-99.99,,,0.00,Acu-Link.com,2013-08-27 07:29:00,
2013-08-27 03:44:00,73.9,69.8,29.87,West,270,4.2,-999.0,87,-99.99,,,0.00,Acu-Link.com,2013-08-27 07:44:00,
2013-08-27 03:59:00,73.8,69.7,29.88,WSW,247,3.2,-999.0,87,-99.99,,,0.00,Acu-Link.com,2013-08-27 07:59:00,
2013-08-27 04:16:00,73.8,69.7,29.88,WSW,247,4.2,-999.0,87,-99.99,,,0.00,Acu-Link.com,2013-08-27 08:16:00,
2013-08-27 04:32:00,73.8,69.7,29.87,SW,225,2.7,-999.0,87,-99.99,,,0.00,Acu-Link.com,2013-08-27 08:32:00,
2013-08-27 04:47:00,73.6,69.8,29.88,West,270,3.2,-999.0,88,-99.99,,,0.00,Acu-Link.com,2013-08-27 08:47:00,
2013-08-27 05:02:00,73.4,69.6,29.88,WSW,247,2.2,-999.0,88,-99.99,,,0.00,Acu-Link.com,2013-08-27 09:02:00,
2013-08-27 05:17:00,73.2,69.8,29.88,WSW,247,3.7,-999.0,89,-99.99,,,0.00,Acu-Link.com,2013-08-27 09:17:00,
2013-08-27 05:32:00,72.9,69.8,29.88,WSW,247,2.7,-999.0,90,-99.99,,,0.00,Acu-Link.com,2013-08-27 09:32:00,
2013-08-27 05:48:00,72.7,69.6,29.88,WSW,247,3.2,-999.0,90,-99.99,,,0.00,Acu-Link.com,2013-08-27 09:48:00,
2013-08-27 06:03:00,72.5,69.7,29.88,West,270,2.7,-999.0,91,-99.99,,,0.00,Acu-Link.com,2013-08-27 10:03:00,
2013-08-27 06:18:00,72.3,69.5,29.88,West,270,3.2,-999.0,91,-99.99,,,0.00,Acu-Link.com,2013-08-27 10:18:00,
2013-08-27 06:33:00,72.3,69.8,29.89,WSW,247,3.2,-999.0,92,-99.99,,,0.00,Acu-Link.com,2013-08-27 10:33:00,
2013-08-27 06:48:00,72.1,69.6,29.89,WSW,247,2.7,-999.0,92,-99.99,,,0.00,Acu-Link.com,2013-08-27 10:48:00,
2013-08-27 07:03:00,72.1,69.6,29.88,WSW,247,2.7,-999.0,92,-99.99,,,0.00,Acu-Link.com,2013-08-27 11:03:00,
2013-08-27 07:19:00,72.1,69.6,29.89,West,270,2.2,-999.0,92,-99.99,,,0.00,Acu-Link.com,2013-08-27 11:19:00,
2013-08-27 07:34:00,72.3,69.8,29.88,WSW,247,1.7,-999.0,92,-99.99,,,0.00,Acu-Link.com,2013-08-27 11:34:00,
2013-08-27 07:49:00,72.3,69.8,29.89,WSW,247,3.2,-999.0,92,-99.99,,,0.00,Acu-Link.com,2013-08-27 11:49:00,
2013-08-27 08:04:00,72.5,70.0,29.90,WNW,292,2.7,-999.0,92,-99.99,,,0.00,Acu-Link.com,2013-08-27 12:04:00,
2013-08-27 08:20:00,73.0,70.5,29.89,WSW,247,2.7,-999.0,92,-99.99,,,0.00,Acu-Link.com,2013-08-27 12:20:00,
2013-08-27 08:35:00,73.9,71.1,29.89,West,270,2.7,-999.0,91,-99.99,,,0.00,Acu-Link.com,2013-08-27 12:35:00,
2013-08-27 08:50:00,74.1,71.0,29.90,WSW,247,3.2,-999.0,90,-99.99,,,0.00,Acu-Link.com,2013-08-27 12:50:00,
2013-08-27 09:05:00,74.7,71.2,29.89,SW,225,2.7,-999.0,89,-99.99,,,0.00,Acu-Link.com,2013-08-27 13:05:00,
2013-08-27 09:20:00,75.6,71.8,29.89,West,270,5.8,-999.0,88,-99.99,,,0.00,Acu-Link.com,2013-08-27 13:20:00,
2013-08-27 09:35:00,75.9,71.7,29.89,West,270,4.2,-999.0,87,-99.99,,,0.00,Acu-Link.com,2013-08-27 13:35:00,
2013-08-27 09:50:00,76.5,72.3,29.89,WSW,247,2.7,-999.0,87,-99.99,,,0.00,Acu-Link.com,2013-08-27 13:50:00,
2013-08-27 10:05:00,77.0,72.5,29.88,West,270,3.2,-999.0,86,-99.99,,,0.00,Acu-Link.com,2013-08-27 14:05:00,
2013-08-27 10:20:00,77.9,73.0,29.89,West,270,3.7,-999.0,85,-99.99,,,0.00,Acu-Link.com,2013-08-27 14:20:00,
2013-08-27 10:36:00,78.8,73.2,29.89,West,270,3.7,-999.0,83,-99.99,,,0.00,Acu-Link.com,2013-08-27 14:36:00,
2013-08-27 10:51:00,79.5,73.5,29.89,West,270,3.7,-999.0,82,-99.99,,,0.00,Acu-Link.com,2013-08-27 14:51:00,
2013-08-27 11:06:00,80.8,74.0,29.89,West,270,3.7,-999.0,80,-99.99,,,0.00,Acu-Link.com,2013-08-27 15:06:00,
2013-08-27 11:21:00,81.3,73.4,29.90,WSW,247,5.3,-999.0,77,-99.99,,,0.00,Acu-Link.com,2013-08-27 15:21:00,
2013-08-27 11:36:00,82.8,74.8,29.89,WNW,292,2.2,-999.0,77,-99.99,,,0.00,Acu-Link.com,2013-08-27 15:36:00,
2013-08-27 11:52:00,83.7,74.1,29.89,SE,135,2.7,-999.0,73,-99.99,,,0.00,Acu-Link.com,2013-08-27 15:52:00,
2013-08-27 12:07:00,83.7,74.1,29.88,West,270,3.7,-999.0,73,-99.99,,,0.00,Acu-Link.com,2013-08-27 16:07:00,
2013-08-27 12:22:00,83.8,75.0,29.88,SW,225,3.2,-999.0,75,-99.99,,,0.00,Acu-Link.com,2013-08-27 16:22:00,
2013-08-27 12:38:00,85.5,75.8,29.87,WSW,247,4.2,-999.0,73,-99.99,,,0.00,Acu-Link.com,2013-08-27 16:38:00,
2013-08-27 12:53:00,83.7,74.5,29.88,WSW,247,3.2,-999.0,74,-99.99,,,0.00,Acu-Link.com,2013-08-27 16:53:00,
2013-08-27 13:08:00,84.2,74.6,29.87,NNW,337,3.7,-999.0,73,-99.99,,,0.00,Acu-Link.com,2013-08-27 17:08:00,
2013-08-27 13:24:00,85.6,75.1,29.86,WNW,292,3.7,-999.0,71,-99.99,,,0.00,Acu-Link.com,2013-08-27 17:24:00,
2013-08-27 13:39:00,84.9,74.0,29.85,SW,225,2.7,-999.0,70,-99.99,,,0.00,Acu-Link.com,2013-08-27 17:39:00,
2013-08-27 13:54:00,84.7,73.4,29.85,West,270,3.2,-999.0,69,-99.99,,,0.00,Acu-Link.com,2013-08-27 17:54:00,
2013-08-27 14:09:00,86.4,74.6,29.85,West,270,3.2,-999.0,68,-99.99,,,0.00,Acu-Link.com,2013-08-27 18:09:00,
2013-08-27 14:24:00,86.0,74.2,29.84,SW,225,2.2,-999.0,68,-99.99,,,0.00,Acu-Link.com,2013-08-27 18:24:00,
2013-08-27 14:39:00,87.3,74.1,29.82,West,270,4.7,-999.0,65,-99.99,,,0.00,Acu-Link.com,2013-08-27 18:39:00,
2013-08-27 14:55:00,86.2,74.8,29.82,WNW,292,4.7,-999.0,69,-99.99,,,0.00,Acu-Link.com,2013-08-27 18:55:00,
2013-08-27 15:10:00,85.5,74.1,29.81,WNW,292,6.8,-999.0,69,-99.99,,,0.00,Acu-Link.com,2013-08-27 19:10:00,
2013-08-27 15:25:00,85.1,74.2,29.81,ESE,112,2.7,-999.0,70,-99.99,,,0.00,Acu-Link.com,2013-08-27 19:25:00,
2013-08-27 15:41:00,85.6,75.1,29.81,NNW,337,0.0,-999.0,71,-99.99,,,0.00,Acu-Link.com,2013-08-27 19:41:00,
2013-08-27 15:56:00,86.2,74.8,29.80,WSW,247,3.7,-999.0,69,-99.99,,,0.00,Acu-Link.com,2013-08-27 19:56:00,
2013-08-27 16:11:00,87.8,75.0,29.80,WNW,292,3.2,-999.0,66,-99.99,,,0.00,Acu-Link.com,2013-08-27 20:11:00,
2013-08-27 16:26:00,86.4,73.7,29.80,West,270,2.7,-999.0,66,-99.99,,,0.00,Acu-Link.com,2013-08-27 20:26:00,
2013-08-27 16:42:00,86.9,74.1,29.80,South,180,2.2,-999.0,66,-99.99,,,0.00,Acu-Link.com,2013-08-27 20:42:00,
2013-08-27 16:57:00,87.8,75.4,29.79,WSW,247,0.0,-999.0,67,-99.99,,,0.00,Acu-Link.com,2013-08-27 20:57:00,
2013-08-27 17:12:00,85.6,75.5,29.79,WSW,247,3.2,-999.0,72,-99.99,,,0.00,Acu-Link.com,2013-08-27 21:12:00,
2013-08-27 17:58:00,84.4,74.8,29.79,West,270,7.3,-999.0,73,-99.99,,,0.00,Acu-Link.com,2013-08-27 21:58:00,
2013-08-27 18:13:00,83.7,74.9,29.79,West,270,2.7,-999.0,75,-99.99,,,0.00,Acu-Link.com,2013-08-27 22:13:00,
2013-08-27 18:29:00,83.5,74.3,29.79,West,270,3.7,-999.0,74,-99.99,,,0.00,Acu-Link.com,2013-08-27 22:29:00,
2013-08-27 18:44:00,83.3,74.9,29.79,WSW,247,1.7,-999.0,76,-99.99,,,0.00,Acu-Link.com,2013-08-27 22:44:00,
2013-08-27 18:59:00,82.9,74.5,29.78,West,270,2.7,-999.0,76,-99.99,,,0.00,Acu-Link.com,2013-08-27 22:59:00,
2013-08-27 19:14:00,83.1,74.7,29.79,WSW,247,2.7,-999.0,76,-99.99,,,0.00,Acu-Link.com,2013-08-27 23:14:00,
2013-08-27 19:29:00,82.9,74.9,29.79,WSW,247,3.2,-999.0,77,-99.99,,,0.00,Acu-Link.com,2013-08-27 23:29:00,
2013-08-27 19:45:00,82.2,74.6,29.80,SSW,202,3.2,-999.0,78,-99.99,,,0.00,Acu-Link.com,2013-08-27 23:45:00,
2013-08-27 20:00:00,81.9,74.3,29.79,West,270,5.3,-999.0,78,-99.99,,,0.00,Acu-Link.com,2013-08-28 00:00:00,
2013-08-27 20:15:00,81.1,74.3,29.80,West,270,4.7,-999.0,80,-99.99,,,0.00,Acu-Link.com,2013-08-28 00:15:00,
2013-08-27 20:30:00,80.8,74.0,29.80,SW,225,2.2,-999.0,80,-99.99,,,0.00,Acu-Link.com,2013-08-28 00:30:00,
2013-08-27 20:45:00,80.2,73.8,29.80,WSW,247,2.7,-999.0,81,-99.99,,,0.00,Acu-Link.com,2013-08-28 00:45:00,
2013-08-27 21:01:00,79.9,74.3,29.81,WSW,247,2.7,-999.0,83,-99.99,,,0.00,Acu-Link.com,2013-08-28 01:01:00,
2013-08-27 21:16:00,79.7,74.4,29.80,WSW,247,2.7,-999.0,84,-99.99,,,0.00,Acu-Link.com,2013-08-28 01:16:00,
2013-08-27 21:47:00,79.3,74.4,29.81,SE,135,2.7,-999.0,85,-99.99,,,0.00,Acu-Link.com,2013-08-28 01:47:00,
2013-08-27 22:02:00,79.3,74.4,29.81,SSW,202,3.2,-999.0,85,-99.99,,,0.00,Acu-Link.com,2013-08-28 02:02:00,
2013-08-27 22:17:00,79.0,74.1,29.82,West,270,4.7,-999.0,85,-99.99,,,0.00,Acu-Link.com,2013-08-28 02:17:00,
2013-08-27 22:32:00,78.6,74.0,29.81,SSW,202,2.7,-999.0,86,-99.99,,,0.00,Acu-Link.com,2013-08-28 02:32:00,
2013-08-27 22:48:00,78.3,73.8,29.82,SSW,202,2.7,-999.0,86,-99.99,,,0.00,Acu-Link.com,2013-08-28 02:48:00,
2013-08-27 23:03:00,77.9,73.7,29.82,WSW,247,2.7,-999.0,87,-99.99,,,0.00,Acu-Link.com,2013-08-28 03:03:00,
2013-08-27 23:18:00,77.7,73.5,29.81,WSW,247,2.7,-999.0,87,-99.99,,,0.00,Acu-Link.com,2013-08-28 03:18:00,
2013-08-27 23:34:00,77.4,73.6,29.81,West,270,2.7,-999.0,88,-99.99,,,0.00,Acu-Link.com,2013-08-28 03:34:00,
2013-08-27 23:49:00,77.4,73.6,29.82,SW,225,3.7,-999.0,88,-99.99,,,0.00,Acu-Link.com,2013-08-28 03:49:00,